Date String (YYYY-MM-DD hh:mm:ss) UTC,Instrument flags,absolute air pressure of the measurement (hPa),sample flow rate (lpm),inlet stack bypass flow (lpm),air temperature of the measurement (°C),ambient temperature measured by the external sensor (°C),aerosol sample conditioner tube jacket temperature (°C),OPC LED temperature (°C),internal box temperature (°C),relative humidity of the measurement (%),span deviation,mass concentration of particles derived from Lorenz-Mie calculation of OPC scattering (μg/m³),mass concentration of particles derived from Lorenz-Mie calculation of OPC scattering (μg/m³),mass concentration of particles derived from Lorenz-Mie calculation of OPC scattering (μg/m³)
DateTimeUTC,F1_M11,P_M11,Q1_M11,Q2_M11,T1_M11,T2_M11,T3_M11,T4_M11,T5_M11,U1_M11,ZSPAN_M11,X0_M11,X2_M11,X1_M11
2024-06-07 13:00:00,SystemResetWarning,0827.4,5.00,000.00,030.2,029.3,000.0,038.7,031.9,020.5,0000.0,0018.69,0004.43,0002.86
2024-06-07 13:01:00,SystemResetWarning,0827.3,4.99,000.00,030.2,029.4,000.0,038.7,031.9,020.0,0000.0,0018.79,0004.39,0002.85
2024-06-07 13:02:00,SystemResetWarning,0827.4,5.01,000.00,030.3,029.5,000.0,038.7,032.0,019.5,0000.0,0018.35,0004.32,0002.83
2024-06-07 13:03:00,SystemResetWarning,0827.4,5.01,000.00,030.3,029.5,000.0,038.7,032.0,019.6,0000.0,0018.10,0004.24,0002.80
2024-06-07 13:04:00,SystemResetWarning,0827.4,5.00,000.00,030.3,029.6,000.0,038.7,032.0,019.6,0000.0,0017.82,0004.24,0002.78
2024-06-07 13:05:00,SystemResetWarning,0827.4,5.00,000.00,030.4,029.7,000.0,038.7,032.1,019.5,0000.0,0018.39,0004.19,0002.75
2024-06-07 13:06:00,SystemResetWarning,0827.4,5.00,000.00,030.4,029.7,000.0,038.7,032.1,019.5,0000.0,0018.47,0004.14,0002.73
2024-06-07 13:07:00,SystemResetWarning,0827.3,5.00,000.00,030.4,029.8,000.0,038.8,032.1,019.7,0000.0,0018.12,0004.12,0002.72
2024-06-07 13:08:00,SystemResetWarning,0827.4,5.00,000.00,030.5,029.8,000.0,038.8,032.1,019.2,0000.0,0018.97,0004.12,0002.69
2024-06-07 13:09:00,SystemResetWarning,0827.3,5.00,000.00,030.5,029.8,000.0,038.8,032.2,018.9,0000.0,0018.08,0004.07,0002.65
2024-06-07 13:10:00,SystemResetWarning,0827.3,5.00,000.00,030.5,029.9,000.0,038.8,032.2,019.0,0000.0,0017.21,0004.06,0002.63
2024-06-07 13:11:00,SystemResetWarning,0827.3,5.00,000.00,030.5,029.9,000.0,038.8,032.2,019.4,0000.0,0017.23,0004.04,0002.60
2024-06-07 13:12:00,SystemResetWarning,0827.4,5.00,000.00,030.6,029.9,000.0,038.8,032.2,019.6,0000.0,0016.83,0004.06,0002.58
2024-06-07 13:13:00,SystemResetWarning,0827.4,4.99,000.00,030.6,030.0,000.0,038.9,032.3,019.4,0000.0,0017.36,0004.08,0002.55
2024-06-07 13:14:00,SystemResetWarning,0827.4,5.00,000.00,030.6,030.0,000.0,038.9,032.3,019.5,0000.0,0017.00,0004.10,0002.53
2024-06-07 13:15:00,SystemResetWarning,0827.4,5.00,000.00,030.6,030.0,000.0,038.9,032.3,019.5,0000.0,0016.84,0004.13,0002.51
2024-06-07 13:16:00,SystemResetWarning,0827.4,5.01,000.00,030.7,030.0,000.0,038.9,032.3,019.4,0000.0,0015.94,0004.17,0002.51
2024-06-07 13:17:00,SystemResetWarning,0827.4,5.00,000.00,030.7,030.1,000.0,038.9,032.4,019.7,0000.0,0015.83,0004.21,0002.51
2024-06-07 13:18:00,SystemResetWarning,0827.4,4.99,000.00,030.7,030.1,000.0,039.0,032.4,019.4,0000.0,0015.88,0004.18,0002.48
2024-06-07 13:19:00,SystemResetWarning,0827.4,4.99,000.00,030.7,030.1,000.0,039.0,032.4,019.3,0000.0,0015.05,0004.16,0002.46
2024-06-07 13:20:00,SystemResetWarning,0827.4,5.01,000.00,030.8,030.1,000.0,039.0,032.4,019.2,0000.0,0016.05,0004.21,0002.47
2024-06-07 13:21:00,SystemResetWarning,0827.4,5.00,000.00,030.8,030.1,000.0,039.0,032.5,018.7,0000.0,0015.96,0004.15,0002.48
2024-06-07 13:22:00,SystemResetWarning,0827.4,5.01,000.00,030.8,030.2,000.0,039.1,032.5,017.9,0000.0,0015.80,0004.16,0002.48
2024-06-07 13:23:00,SystemResetWarning,0827.4,4.99,000.00,030.8,030.2,000.0,039.1,032.5,017.9,0000.0,0015.95,0004.11,0002.48
2024-06-07 13:24:00,SystemResetWarning,0827.4,5.00,000.00,030.8,030.2,000.0,039.1,032.5,018.6,0000.0,0015.77,0004.07,0002.48
2024-06-07 13:25:00,SystemResetWarning,0827.4,5.00,000.00,030.8,030.2,000.0,039.1,032.5,018.4,0000.0,0016.82,0004.05,0002.45
2024-06-07 13:26:00,SystemResetWarning,0827.4,5.00,000.00,030.9,030.2,000.0,039.1,032.5,018.3,0000.0,0016.81,0004.01,0002.44
2024-06-07 13:27:00,SystemResetWarning,0827.3,4.99,000.00,030.9,030.2,000.0,039.2,032.5,018.5,0000.0,0017.46,0004.02,0002.43
2024-06-07 13:28:00,SystemResetWarning,0827.3,5.00,000.00,030.7,028.7,000.0,039.2,031.7,018.7,0000.0,0018.04,0003.98,0002.43
2024-06-07 13:29:00,SystemResetWarning,0827.2,5.01,000.00,030.3,026.9,000.0,039.2,030.9,018.0,0000.0,0017.42,0003.97,0002.42
2024-06-07 13:30:00,SystemResetWarning,0827.2,5.02,000.00,030.0,027.0,000.0,039.2,030.8,018.2,0000.0,0016.74,0003.97,0002.41
2024-06-07 13:31:00,SystemResetWarning,0827.2,4.99,000.00,030.0,027.4,000.0,039.0,031.0,018.4,0000.0,0015.67,0003.89,0002.38
2024-06-07 13:32:00,SystemResetWarning,0827.2,5.00,000.00,030.0,027.8,000.0,038.9,031.2,018.9,0000.0,0015.47,0003.86,0002.34
2024-06-07 13:33:00,SystemResetWarning,0827.2,5.00,000.00,030.0,028.1,000.0,038.8,031.3,018.9,0000.0,0015.86,0003.86,0002.32
2024-06-07 13:34:00,SystemResetWarning,0827.2,4.99,000.00,030.0,028.4,000.0,038.7,031.5,018.6,0000.0,0015.60,0003.85,0002.32
2024-06-07 13:35:00,SystemResetWarning,0827.2,5.00,000.00,030.0,028.6,000.0,038.7,031.6,018.4,0000.0,0015.16,0003.86,0002.30
2024-06-07 13:36:00,SystemResetWarning,0827.2,5.00,000.00,030.0,028.8,000.0,038.6,031.6,018.2,0000.0,0014.42,0003.81,0002.27
2024-06-07 13:37:00,SystemResetWarning,0827.2,5.01,000.00,030.1,029.0,000.0,038.6,031.7,017.9,0000.0,0013.73,0003.75,0002.25
2024-06-07 13:38:00,SystemResetWarning,0827.2,5.00,000.00,030.1,029.1,000.0,038.6,031.8,017.8,0000.0,0013.24,0003.72,0002.22
2024-06-07 13:39:00,SystemResetWarning,0827.2,5.00,000.00,030.1,029.2,000.0,038.6,031.8,017.4,0000.0,0012.63,0003.77,0002.19
2024-06-07 13:40:00,SystemResetWarning,0827.2,4.99,000.00,030.2,029.3,000.0,038.6,031.9,017.2,0000.0,0013.11,0003.76,0002.15
2024-06-07 13:41:00,SystemResetWarning,0827.2,5.00,000.00,030.2,029.4,000.0,038.6,031.9,017.7,0000.0,0012.96,0003.71,0002.11
2024-06-07 13:42:00,SystemResetWarning,0827.2,5.00,000.00,030.2,029.5,000.0,038.6,031.9,018.2,0000.0,0013.06,0003.69,0002.08
2024-06-07 13:43:00,SystemResetWarning,0827.2,5.00,000.00,030.3,029.6,000.0,038.6,032.0,017.7,0000.0,0013.49,0003.69,0002.07
2024-06-07 13:44:00,SystemResetWarning,0827.2,5.00,000.00,030.3,029.6,000.0,038.6,032.0,017.9,0000.0,0013.12,0003.74,0002.08
2024-06-07 13:45:00,SystemResetWarning,0827.2,5.00,000.00,030.3,029.7,000.0,038.6,032.0,018.4,0000.0,0013.13,0003.74,0002.06
2024-06-07 13:46:00,SystemResetWarning,0827.2,5.00,000.00,030.4,029.7,000.0,038.7,032.0,018.1,0000.0,0013.21,0003.74,0002.06
2024-06-07 13:47:00,SystemResetWarning,0827.2,5.00,000.00,030.4,029.7,000.0,038.7,032.1,019.0,0000.0,0012.69,0003.72,0002.05
2024-06-07 13:48:00,SystemResetWarning,0827.2,5.01,000.00,030.4,029.8,000.0,038.7,032.1,019.9,0000.0,0013.46,0003.83,0002.07
2024-06-07 13:49:00,SystemResetWarning,0827.2,5.00,000.00,030.4,029.8,000.0,038.7,032.1,019.6,0000.0,0013.12,0003.84,0002.09
2024-06-07 13:50:00,SystemResetWarning,0827.2,5.00,000.00,030.5,029.9,000.0,038.7,032.2,019.9,0000.0,0014.07,0003.78,0002.10
2024-06-07 13:51:00,SystemResetWarning,0827.2,5.00,000.00,030.5,029.9,000.0,038.7,032.2,020.1,0000.0,0014.21,0003.84,0002.14
2024-06-07 13:52:00,SystemResetWarning,0827.2,5.00,000.00,030.5,029.9,000.0,038.8,032.2,020.5,0000.0,0015.09,0003.88,0002.17
2024-06-07 13:53:00,SystemResetWarning,0827.2,4.99,000.00,030.6,030.0,000.0,038.8,032.3,021.0,0000.0,0015.35,0003.92,0002.20
2024-06-07 13:54:00,SystemResetWarning,0827.2,4.99,000.00,030.6,030.0,000.0,038.8,032.3,020.5,0000.0,0016.16,0003.91,0002.21
2024-06-07 13:55:00,SystemResetWarning,0827.2,5.00,000.00,030.6,030.0,000.0,038.9,032.3,020.6,0000.0,0016.58,0003.90,0002.23
2024-06-07 13:56:00,SystemResetWarning,0827.3,5.00,000.00,030.6,030.1,000.0,038.9,032.3,020.9,0000.0,0016.71,0003.88,0002.24
2024-06-07 13:57:00,SystemResetWarning,0827.4,5.01,000.00,030.7,030.1,000.0,038.9,032.4,021.0,0000.0,0016.94,0003.89,0002.26
2024-06-07 13:58:00,SystemResetWarning,0827.4,4.99,000.00,030.6,029.3,000.0,039.0,032.0,020.4,0000.0,0016.82,0003.93,0002.31
2024-06-07 13:59:00,SystemResetWarning,0827.3,5.00,000.00,030.2,027.1,000.0,039.0,030.9,020.9,0000.0,0016.65,0003.85,0002.31
